User: anonymous   Login
Location: Maiden
(35.5760°N, 81.2120°W)
Time: 11:07:22
(UTC-04:00)
Language:

Altair - Orbit

View from above orbital plane
View from above orbital plane
View from above satellite
View from above satellite

Ground track
Ground track

The orbit data is extracted from the following two-line orbital elements,

1    50U 60009B   20216.64774553 -.00000087 +00000-0 -64733-5 0  9997
2    50 047.2331 334.7968 0113684 106.5725 254.7585 12.20112458675983
Epoch (UTC): 03 August 2020 15:32:45
Eccentricity: 0.0113684
inclination: 47.2331°
perigee height: 1501 km
apogee height: 1682 km
right ascension of ascending node: 334.7968°
argument of perigee: 106.5725°
revolutions per day: 12.20112458
mean anomaly at epoch: 254.7585°
orbit number at epoch: 67598

The dashed part of the orbit path shows where the satellite is in the earth's shadow,  

DLR